Weather in Annenskoye

Russia / Chelyabinsk Oblast     53°07′13″N   60°22′43″E
temp.,
°C
wind,
m/s
gust,
m/s
humid.,
%
clouds,
%
prec.,
mm/h
press.,
hPa
HPBL,
m
5 march, fri
fri523:00−8sw9188633 0.0 1007564
02:00−6sw112086100 0.0 1004965
05:00−3wsw122185100 0.1 1002951
08:00−4wsw11208093 0.0 1004808
11:00−3wsw11178482 0.0 1006963
14:00−1sw111887100 0.1 10051123
17:00−1sw122093100 0.3 10041225
20:000wsw111988100 0.5 10021072
6 march, sat
sat623:000wsw10178490 0.5 1005891
02:00−5w5108931 0.0 1007259
05:00−9wnw348465 0.0 101138
08:00−11wnw348699 0.0 101229
11:00−9w368651 0.0 1013172
14:00−7w46820 0.0 1014328
17:00−8wsw35860 0.0 1014103
20:00−11sw348583 0.0 101543
7 march, sun
sun723:00−11wsw348991 0.0 101660
02:00−11wsw2386100 0.0 101421
05:00−10s1288100 0.0 101221
08:00−9e3596100 0.9 1009181
11:00−7e5895100 3.2 1005366
14:00−5ene5696100 2.7 1001215
17:00−6n7997100 5.6 1000269
20:00−8nnw61192100 1.8 1003546
8 march, mon
mon823:00−13nw5109383 1.8 1007160
02:00−14wnw59891 0.0 1010157
05:00−18w598615 0.0 1013136
08:00−20wsw48912 0.0 1014100
11:00−13sw6118951 0.0 1014296
14:00−9sw91589100 0.0 1012690
17:00−6sw101684100 0.1 10111017
20:00−6sw81688100 0.0 1012683
9 march, tue
tue923:00−8sw5139193 0.0 1013338
02:00−6ssw7159398 0.1 1012548
05:00−6ssw10179099 0.1 1009765
08:00−5ssw122090100 0.2 10071021
11:00−8wsw10186783 0.5 10091053
14:00−6wsw1016720 0.0 10111062
17:00−7wsw814750 0.0 1013637
20:00−11wsw7148341 0.0 1014300